AO-07 1 07530U 74089B 16028.45678221 -.00000039 00000-0 29500-4 0 9998 2 07530 101.5556 2.7509 0011722 223.9313 250.6834 12.53619162885486 FO-29 1 24278U 96046B 16028.82176628 -.00000035 00000-0 17826-5 0 9993 2 24278 98.5755 332.4548 0349923 205.9468 152.3757 13.53063145960531 SO-33 1 25509U 98061B 16027.51277055 .00000417 00000-0 67288-4 0 9990 2 25509 31.4348 59.4119 0347460 240.4057 116.1518 14.30128014901558 RS-22 1 27939U 03042A 16028.76584221 .00000336 00000-0 69118-4 0 9992 2 27939 97.8656 186.0263 0013847 35.2342 324.9783 14.66300914659247 HO-68 1 36122U 09072B 16028.82821580 -.00000059 00000-0 -43517-4 0 9993 2 36122 100.1626 70.2598 0006830 322.6519 37.4123 13.16332276294142 AO-73 1 39444U 13066AE 16028.82813281 .00000724 00000-0 97597-4 0 9994 2 39444 97.7014 88.0204 0060507 119.0378 241.6916 14.80817721116807 EO-79 1 40025U 14033R 16028.77571976 .00000802 00000-0 93950-4 0 9998 2 40025 97.9387 294.2101 0013068 159.0366 201.1388 14.87742557 87326 XW-2A 1 40903U 15049E 16028.84314698 .00004653 00000-0 13927-3 0 9998 2 40903 97.4509 42.3814 0014467 279.9987 175.8749 15.34956941 20018 XW-2C 1 40906U 15049H 16028.81742103 .00002067 00000-0 12057-3 0 9994 2 40906 97.4538 38.9706 0016471 156.7124 329.5688 15.12943239 19779 LILACSAT-2 1 40908U 15049K 16028.87223647 .00000917 00000-0 56744-4 0 9993 2 40908 97.4610 39.0038 0017045 149.6029 329.9612 15.12141468 19770 XW-2E 1 40909U 15049L 16028.77647819 .00003081 00000-0 17493-3 0 9996 2 40909 97.4538 39.0152 0015455 159.4827 307.1577 15.13575617 19771 UO-11 1 14781U 84021B 16028.73172718 .00000262 00000-0 38905-4 0 9998 2 14781 97.7705 84.8870 0009750 59.6855 300.5322 14.82653515715448 AO-16 1 20439U 90005D 16028.39847168 .00000060 00000-0 38095-4 0 9990 2 20439 98.5629 326.5163 0010152 210.5253 265.3296 14.32605722358980 LO-19 1 20442U 90005G 16027.86309654 .00000047 00000-0 33344-4 0 9995 2 20442 098.5331 324.8576 0011297 198.9963 161.0801 14.32793577359050 AO-27 1 22825U 93061C 16028.44051630 .00000031 00000-0 29663-4 0 9992 2 22825 98.7410 343.9637 0008735 16.8045 343.3424 14.29934102165125 IO-26 1 22826U 93061D 16028.58671597 .00000049 00000-0 36241-4 0 9997 2 22826 98.7353 344.2508 0009094 7.6252 352.5066 14.30256395165307 GO-32 1 25397U 98043D 16028.14918672 .00000015 00000-0 25393-4 0 9997 2 25397 98.5511 336.8770 0002157 58.3639 301.7750 14.23580295911799 NO-44 1 26931U 01043C 16027.88659523 .00000009 00000-0 35319-4 0 9995 2 26931 067.0527 317.4456 0007470 273.6685 086.3562 14.30380838747865 SO-50 1 27607U 02058C 16028.69388113 .00000260 00000-0 36575-4 0 9991 2 27607 64.5551 230.0712 0079319 245.2781 114.0543 14.75032707704547 CO-55 1 27844U 03031E 16028.43836220 .00000106 00000-0 67948-4 0 9992 2 27844 98.6946 38.7382 0009915 16.2307 343.9186 14.21906381652443 CO-57 1 27848U 03031J 16027.95201319 .00000077 00000-0 55276-4 0 9995 2 27848 098.7042 038.2814 0010015 025.3545 334.8122 14.21538419652248 AO-51 1 28375U 04025K 16028.79978122 .00000109 00000-0 45327-4 0 9993 2 28375 98.3170 328.0339 0082931 9.1719 351.0962 14.41745563608991 CP3 1 31129U 07012N 16028.46290256 .00000541 00000-0 12573-3 0 9998 2 31129 98.0132 349.8801 0095635 332.6292 26.9886 14.56145417465898 CO-65 1 32785U 08021C 16028.17236425 .00000522 00000-0 63434-4 0 9996 2 32785 97.6210 68.1353 0014353 48.1434 312.1005 14.87355591419664 PRISM 1 33493U 09002B 16028.82534776 .00002476 00000-0 23525-3 0 9991 2 33493 98.2319 242.1983 0014856 312.5258 47.4683 14.94425701380263 SOHLA-1 1 33496U 09002E 16028.39360880 .00000179 00000-0 37077-4 0 9995 2 33496 98.2390 163.6300 0006728 158.8738 267.4413 14.71523240376293 TISAT-1 1 36799U 10035E 16028.53052613 .00001222 00000-0 13457-3 0 9995 2 36799 98.0216 136.7768 0012780 182.4384 177.6772 14.89408153300483 STUDSAT 1 36801U 10035G 16027.89071135 .00013911 00000-0 64521-3 0 9993 2 36801 098.0800 166.4041 0005668 095.2875 264.9005 15.20172255301884 ALMASAT-1 1 38078U 12006B 16028.21324003 .00034932 36979-5 50927-3 0 9993 2 38078 69.4529 27.2528 0423210 302.5148 53.5766 14.93600852208464 CUBEBUG-1 1 39153U 13018D 16028.23641417 .00000580 00000-0 84250-4 0 9995 2 39153 98.0045 116.8827 0016005 243.5262 116.4308 14.79687098148755 ESTCUBE-1 1 39161U 13021C 16028.84558563 .00000592 00000-0 10341-3 0 9996 2 39161 98.0580 114.6862 0008888 322.6465 37.4101 14.71516052146425 DUCHIFAT-1 1 40021U 14033M 16028.44499928 .00001082 00000-0 12117-3 0 9990 2 40021 97.9411 294.6343 0013596 159.5126 200.6638 14.88915132 87310 NANOSATCBR1 1 40024U 14033Q 16028.70827712 .00000994 00000-0 11324-3 0 9998 2 40024 97.9389 294.4645 0012878 158.0771 202.0998 14.88379766 87336 DTUSAT-2 1 40030U 14033W 16028.72257196 .00000798 00000-0 94410-4 0 9990 2 40030 97.9369 293.7242 0012622 152.6894 207.4988 14.87380418 87297 ANTELSAT 1 40034U 14033AA 16028.64485584 .00000733 00000-0 11815-3 0 9995 2 40034 97.9216 280.4570 0060570 115.9823 244.7634 14.73188582 86483 MET-2/21 1 22782U 93055A 16028.62133730 .00000015 00000-0 -41252-6 0 9992 2 22782 82.5468 64.7892 0023409 51.2222 99.4738 13.83782450131774 OKEAN-4 1 23317U 94066A 16027.94625259 .00000416 00000-0 43582-4 0 9996 2 23317 082.5357 234.2491 0018887 307.4234 183.5942 14.87023784150707 NOAA-14 1 23455U 94089A 16028.57163801 -.00000004 00000-0 20460-4 0 9998 2 23455 98.7342 110.2038 0009982 152.7906 318.4584 14.14066811 87388 NOAA-15 1 25338U 98030A 16028.51203057 .00000048 00000-0 38962-4 0 9995 2 25338 98.7812 32.3957 0009774 231.1634 128.8674 14.25698050920944 RESURS 1 25394U 98043A 16028.48617692 -.00000020 00000-0 94657-5 0 9996 2 25394 98.4979 340.7963 0001464 24.2721 84.0629 14.24467769912355 FENGYUN1 1 25730U 99025A 16028.81185199 .00001662 00000-0 89853-3 0 9992 2 25730 98.9650 358.8940 0018195 216.3113 172.5036 14.13914707860931 OKEAN-0 1 25860U 99039A 16027.88200461 .00000295 00000-0 50173-4 0 9992 2 25860 98.1262 1.7260 0001145 65.1485 327.2450 14.76268776889133 NOAA-16 1 26536U 00055A 16028.60915397 -.00000008 00000-0 00000 0 0 9997 2 26536 98.9143 99.0567 0009872 318.9572 41.1334 14.13132785792622 NOAA-17 1 27453U 02032A 16028.55660603 .00000040 00000-0 34597-4 0 9992 2 27453 98.3666 8.6831 0010667 239.1731 120.8400 14.24921198706754 NOAA-18 1 28654U 05018A 16028.57367995 .00000044 00000-0 49288-4 0 9990 2 28654 99.1961 31.8581 0015023 51.5311 308.7205 14.12263800550883 NOAA-19 1 33591U 09005A 16028.57649100 .00000145 00000-0 10373-3 0 9991 2 33591 99.0220 344.3404 0013007 254.5133 105.4602 14.12032970359296 HUBBLE 1 20580U 90037B 16028.63702012 .00001170 00000-0 62678-4 0 9994 2 20580 28.4701 106.7202 0003045 134.8062 16.4301 15.08098264213872 ISS 1 25544U 98067A 16028.86949314 .00010413 00000-0 16313-3 0 9997 2 25544 51.6415 37.7872 0006534 53.6988 10.9265 15.54321135983154 CO-58 1 28895U 05043F 16028.42399922 .00000349 00000-0 76466-4 0 9990 2 28895 97.8223 209.5124 0015924 306.9188 53.0555 14.63072169546528 FALCON 1 30776U 07006E 16028.37218588 .00005347 00000-0 19434-3 0 9998 2 30776 35.4322 26.1422 0001084 224.7302 135.3335 15.27729096490727 MAST 1 31126U 07012K 16028.85055544 .00000350 00000-0 85261-4 0 9990 2 31126 97.9938 352.0534 0089718 312.8065 46.5616 14.56282125466325 CAPE1 1 31130U 07012P 16028.16482997 .00000462 00000-0 10963-3 0 9995 2 31130 98.0149 348.9979 0096425 335.8890 23.7810 14.55797316465613 COMPASS 1 32787U 08021E 16027.66750425 .00001468 00000-0 15141-3 0 9993 2 32787 97.6226 73.1912 0013543 32.9350 327.2710 14.91612520419964 AAUSAT2 1 32788U 08021F 16028.10032368 .00001023 00000-0 10417-3 0 9991 2 32788 97.6232 75.5207 0012817 27.6897 332.5002 14.92767232420142 DO-64 1 32789U 08021G 16027.83438535 .00003652 00000-0 28176-3 0 9998 2 32789 97.6273 89.4967 0013088 27.6343 332.5574 15.02138287420779 CO-66 1 32791U 08021J 16028.39686347 .00000905 00000-0 10051-3 0 9990 2 32791 97.6225 71.0371 0014518 38.5656 321.6596 14.89462707419831 RS-30 1 32953U 08025A 16028.83688407 .00000010 00000-0 -13620-7 0 9999 2 32953 82.5009 193.9147 0018439 309.0563 50.8876 12.43066641348645 METEOR-M 1 35865U 09049A 16028.74219145 -.00000039 00000-0 12625-5 0 9993 2 35865 98.4738 65.6689 0002743 156.7814 338.4563 14.22055860330265 RS-38 1 35869U 09049E 16028.70705515 -.00000000 00000-0 18614-4 0 9995 2 35869 98.4647 65.1517 0004355 166.4840 193.6442 14.22327018330311 JUGNU 1 37839U 11058B 16028.85450081 .00000338 00000-0 38858-4 0 9993 2 37839 19.9612 274.4017 0018870 13.6913 63.2198 14.12518256222169 SRMSAT 1 37841U 11058D 16027.90873769 .00000329 00000-0 35714-4 0 9991 2 37841 019.9728 311.4248 0011737 280.0668 128.3151 14.10521320221626 RAX-2 1 37853U 11061D 16028.87222737 .00002286 00000-0 14130-3 0 9990 2 37853 101.7159 356.2592 0187268 136.3775 225.2412 14.98530643230879 AUBIESAT 1 37854U 11061E 16028.84672154 .00002737 00000-0 16215-3 0 9997 2 37854 101.7056 0.7463 0177724 127.4119 234.3416 15.00827628231033 HRBE 1 37855U 11061F 16028.63063824 .00002525 00000-0 14664-3 0 9994 2 37855 101.7186 358.6052 0192439 131.3826 230.4108 14.99730243230910 HORYU-2 1 38340U 12025D 16028.87891012 .00000668 00000-0 10773-3 0 9992 2 38340 98.3416 10.0583 0013073 97.5938 262.6755 14.74806684198798 RS-40 1 38735U 12041C 16028.80258275 .00000040 00000-0 21992-3 0 9998 2 38735 82.4773 279.2989 0017799 49.4709 310.7918 12.42570727158933 PROITERES 1 38756U 12047B 16028.81659482 .00000427 00000-0 69715-4 0 9998 2 38756 98.2275 137.0723 0011229 301.3984 58.6125 14.76080761182288 BEESAT-3 1 39134U 13015E 16028.22299648 .00003072 00000-0 17490-3 0 9995 2 39134 64.8716 56.1998 0014593 234.1071 125.8700 15.14718964152751 BEESAT-2 1 39136U 13015G 16027.89104634 .00002693 00000-0 16371-3 0 9994 2 39136 064.8721 061.7291 0014588 231.5532 128.4283 15.12632608152230 ZACUBE-1 1 39417U 13066B 16028.74888729 .00000595 00000-0 82580-4 0 9996 2 39417 97.7006 87.4907 0061191 120.7066 240.0195 14.80191957117993 TRITON-1 1 39427U 13066M 16028.11562995 .00000394 00000-0 71718-4 0 9990 2 39427 97.6859 70.3015 0115497 167.9100 192.4921 14.67023947116838 DELFIN3XT 1 39428U 13066N 16028.08991908 .00000711 00000-0 12409-3 0 9991 2 39428 97.6882 68.2448 0123393 174.2352 186.0308 14.66017023116683 GOMX-1 1 39430U 13066Q 16028.82314017 .00000571 00000-0 11404-3 0 9994 2 39430 97.6831 60.3654 0152191 198.0620 161.5125 14.58430483116261 LO-74 1 39440U 13066AA 16028.80174196 .00000533 00000-0 82289-4 0 9993 2 39440 97.6942 80.9483 0082485 137.5900 223.1724 14.74970364117581 PUCPSAT-1 1 39442U 13066AC 16028.81780504 .00000995 00000-0 10956-3 0 9995 2 39442 97.7136 98.4575 0034022 97.3993 263.1093 14.89357903117446 SPROUT 1 39770U 14029E 16028.35039220 .00001453 00000-0 17730-3 0 9997 2 39770 97.8706 127.2570 0009812 178.2492 181.8790 14.84815097 91036 POPSAT-HIP1 1 40028U 14033U 16028.83310656 .00000919 00000-0 10704-3 0 9998 2 40028 97.9425 294.3998 0014330 156.8580 203.3289 14.87626949 87323 EO-80 1 40032U 14033Y 16028.67500529 .00000808 00000-0 95686-4 0 9995 2 40032 97.9377 293.6873 0012590 153.0178 207.1695 14.87310812 87283 VELOX-1 1 40057U 14034E 16028.79216270 .00001069 00000-0 16133-3 0 9992 2 40057 98.2011 115.4917 0010159 233.7737 126.2514 14.76437149 85162 DAURIA DX 1 1 40071U 14037C 16028.72206268 .00000483 00000-0 70197-4 0 9990 2 40071 98.3382 114.2075 0007545 231.9003 128.1523 14.80687197 84168 UKUBE-1 1 40074U 14037F 16028.79899061 .00001041 00000-0 13586-3 0 9998 2 40074 98.3416 115.8536 0003748 231.1254 128.9604 14.82801050 84266 HODOYOSHI-1 1 40299U 14070B 16028.81983297 .00002099 00000-0 98403-4 0 9998 2 40299 97.4410 112.5362 0015396 65.0039 75.7065 15.20689097 68098 CHUBUSAT-1 1 40300U 14070C 16028.82473060 .00002352 00000-0 11451-3 0 9993 2 40300 97.4368 111.1632 0023097 69.2862 70.5667 15.19132269 68010 QSAT-EOS 1 40301U 14070D 16028.85527608 .00004173 00000-0 19582-3 0 9991 2 40301 97.4317 110.4143 0031609 69.5769 356.1203 15.19759681 67988 TSUBAME 1 40302U 14070E 16028.82520596 .00002636 00000-0 14333-3 0 9999 2 40302 97.4286 107.6250 0043173 77.6374 61.7222 15.14551324 67802 FIREBIRD FU3 1 40377U 15003B 16028.81645294 .00006482 00000-0 30525-3 0 9994 2 40377 99.0892 109.2348 0148455 232.5808 126.1830 15.10700802 54578 FIREBIRD FU4 1 40378U 15003C 16028.81366274 .00006316 00000-0 29730-3 0 9995 2 40378 99.0893 109.2409 0148721 232.5417 126.2203 15.10700906 54570 GRIFEX 1 40379U 15003D 16028.80068036 .00004457 00000-0 21811-3 0 9996 2 40379 99.0902 108.7698 0151437 235.0392 123.6533 15.09359739 54540 LAMBDA-SAT 1 40458U 98067GB 15136.30676273 .20783109 12527-4 14817-2 0 9995 2 40458 051.6075 233.7697 0010355 318.5347 043.1720 16.39926603 21161 NO-84 1 40654U 15025X 16028.43039934 .00014127 00000-0 31804-3 0 00203 2 40654 054.9989 318.2845 0226701 083.6016 279.0762 15.21008130002587 NO-83 1 40655U 15025X 16028.19364851 .00020975 00000-0 44776-3 0 00172 2 40655 054.9908 316.9141 0214834 084.0800 278.4664 15.24022935002556 DEORBITSAIL 1 40719U 15032E 16028.15755366 .00000984 00000-0 15301-3 0 9991 2 40719 98.0336 280.9156 0016445 334.4575 25.5819 14.75197294 29699 NUDT-PHONESAT 1 40900U 15049B 16028.80530242 .00004992 00000-0 26868-3 0 9990 2 40900 97.4467 39.1567 0015495 176.9582 300.5056 15.15190999 19801 XW-2D 1 40907U 15049J 16028.82017451 .00002382 00000-0 13845-3 0 9993 2 40907 97.4509 38.9086 0015795 154.6788 329.5558 15.12934978 19776 XW-2F 1 40910U 15049M 16028.81927289 .00003137 00000-0 18021-3 0 9995 2 40910 97.4543 38.9662 0016984 153.8617 331.1283 15.13117188 19660 XW-2B 1 40911U 15049N 16028.75132192 .00002208 00000-0 12862-3 0 9995 2 40911 97.4564 38.9270 0015777 155.1858 321.6836 15.12934630 19666 DCBB 1 40912U 15049P 16028.86286059 .00003015 00000-0 16468-3 0 9993 2 40912 97.4539 39.3700 0017382 151.7080 327.6837 15.14955092 19704 TW-1C 1 40926U 15051B 16028.84819726 .00009580 00000-0 30037-3 0 9993 2 40926 97.2939 67.4583 0015288 186.4262 276.9858 15.33153967 19231 TW-1A 1 40928U 15051D 16028.83453084 .00004748 00000-0 15726-3 0 9994 2 40928 97.2874 67.2270 0013821 202.2528 273.3941 15.31688367 19223 IO-86 1 40931U 15052B 16028.57346907 .00000868 00000-0 32026-4 0 9997 2 40931 5.9955 237.5636 0014203 290.6262 69.2338 14.76414294 18115 AAUSat-5 1 40948U 98067GZ 16028.37137914 .00112466 00000-0 71138-3 0 9990 2 40948 51.6365 32.3032 0009456 57.9058 302.2858 15.75677211 17967 GomX-3 1 40949U 98067HA 16028.43055666 .00019250 00000-0 19566-3 0 9995 2 40949 51.6403 34.9900 0007615 54.9248 305.2461 15.65170819 17937 LQSat 1 40958U 15057A 16028.81761288 .00000255 00000-0 47673-4 0 9995 2 40958 98.0290 105.4770 0017055 241.8930 118.0540 14.72798708 16723 AO-85 1 40967U 15058D 16027.34022760 .00001135 00000-0 13437-3 0 00177 2 40967 064.7790 315.9009 0215835 248.7468 109.0466 14.74699011002359 ATHENOXAT-1 1 41168U 15077C 16028.82146831 .00004770 00000-0 25304-3 0 9995 2 41168 14.9999 254.9485 0013266 219.8937 235.9490 15.08861218 6511 /EX
